South Plainfield, NJ (07080)

6:33 AM EST on February 11, 2016 (GMT -0500)
Greg's Weather Center | | Change Station
CLOSE
Current Station
Personal Weather Station
Location: South Plainfield, NJ
Elevation: 85 ft
Nearby Weather Stations

Elev 85 ft 40.59 °N, 74.42 °W | Updated 55 days ago

Partly Cloudy
Partly Cloudy
25 °F
Feels Like 13 °F
N
14
Wind Variable Wind from WNW
Gusts 23 mph

Today
High -- | Low -- °F
--% Chance of Precip.
Yesterday
High -- | Low -- °F
Precip. -- in
Pressure 29.89 in
Visibility 10.0 miles
Clouds Clear
Windchill 13 °F
Dew Point 3 °F
Humidity 38%
Rainfall in
Snow Depth Not available.
6:57 AM 5:27 PM
Waxing Crescent, 11% visible
METAR KLDJ 111135Z AUTO 30014G19KT 10SM CLR M05/M18 A2989 RMK AO2 T10501179
Pressure 29.89 in
Visibility 10.0 miles
Clouds Clear
Windchill 13 °F
Dew Point 3 °F
Humidity 38%
Rainfall in
Snow Depth Not available.
6:57 AM 5:27 PM
Waxing Crescent, 11% visible
METAR KLDJ 111135Z AUTO 30014G19KT 10SM CLR M05/M18 A2989 RMK AO2 T10501179

10-Day Weather Forecast

Almanac

Astronomy

Feb. 11, 2016 Rise Set
Actual Time
Civil Twilight
Nautical Twilight
Astronomical Twilight
Moon
Length of Visible Light
Length of Day
Tomorrow will be .
, % of the Moon is Illuminated

Today's Extremes

State Highs State Lows

Community

WunderPhotos

Upload Photos

1,892,030 photos uploaded!

WunderBlog® & News

Nearby

Air Quality

  Air Quality AQ Index Pollutant
Not available.

Snow Depth

Station Depth Elevation

Earthquake Activity

City Distance Mag. Time & Date
Minimum magnitude displayed is 2.5.

Coastal Water Temperatures

Place Temperature

Stations

Nearby Weather Stations

Station Location Temp. Windchill Dew Point Humidity Wind Precip. Elev Updated Type
                   

Watches & Warnings

There are currently no watches in effect.